Wind_Speed
3 3 3 3 4 5 6 8 9 10 11 11 12 13 14 16 17 18 17 17 17 18 19 21 23 25 26 28 29 30 30 30 30 30 29 28 28 27 26 25 24 24 24 25 25 25 25 24 23
2 2 1 1 1 2 3 4 5 6 7 8 10 11 12 13 14 14 14 14 14 15 16 18 20 23 25 27 28 30 30 31 32 32 32 31 31 31 30 29 28 27 27 27 28 29 29 28 27
6 5 5 5 3 2 1 1 1 4 6 8 9 10 10 10 11 11 12 13 13 15 16 18 20 22 24 26 28 29 31 32 33 33 34 33 33 33 33 32 32 31 30 30 30 31 31 32 31
9 8 7 5 5 4 3 2 3 4 5 7 8 9 10 11 11 12 13 15 16 18 19 21 22 23 25 27 28 30 31 33 34 35 35 35 35 36 35 35 34 34 33 32 32 32 33 34 34
10 10 8 6 6 5 5 5 5 6 6 7 8 9 11 12 14 15 16 17 19 21 22 24 25 27 28 29 31 32 33 34 35 36 37 37 37 37 37 37 37 37 36 35 35 35 35 35 36
10 8 7 6 6 6 6 6 6 6 7 8 9 10 12 14 15 17 18 20 22 23 25 27 29 31 32 33 34 35 36 37 38 39 39 40 40 40 40 40 40 40 39 38 38 38 37 38 38
9 8 8 8 7 7 6 6 7 8 9 10 11 12 14 15 16 18 19 21 23 24 26 28 30 31 33 34 36 37 38 39 40 41 42 43 43 44 44 43 43 42 42 41 41 40 40 40 40
10 9 9 9 8 7 7 8 9 10 11 12 13 15 16 17 18 19 21 22 24 25 27 29 31 32 34 35 37 38 39 40 41 42 43 44 45 46 47 47 46 45 44 44 43 43 43 43 42
10 10 9 7 7 7 7 8 9 10 12 13 14 15 17 18 19 21 22 24 26 27 29 31 32 34 36 37 39 40 41 42 43 43 44 44 44 45 46 46 47 47 47 46 46 46 45 45 44
9 8 7 7 7 6 6 7 8 9 11 12 14 16 18 20 22 24 26 28 30 32 34 36 37 39 40 41 43 43 44 45 46 47 47 47 47 47 47 47 47 46 47 48 48 48 47 47 47
8 8 8 7 8 8 8 8 9 10 11 13 16 19 21 24 26 29 31 34 36 38 40 42 44 45 46 47 49 49 50 50 51 51 51 51 51 50 50 50 49 49 48 48 48 49 49 49 49
8 9 9 9 9 10 10 11 11 13 15 18 20 22 25 27 30 33 35 38 40 43 45 47 49 50 52 53 54 54 55 56 56 56 56 56 55 54 54 54 53 52 52 51 51 50 50 51 51
10 10 10 10 10 11 11 13 14 16 18 21 23 26 28 31 34 36 39 42 44 47 49 52 54 56 57 59 60 61 61 61 62 62 62 61 61 60 59 58 57 56 55 55 54 54 53 52 52
10 9 9 9 10 11 13 15 17 19 21 24 27 30 32 35 38 41 44 47 50 53 55 58 60 62 64 65 67 68 68 69 69 68 68 67 66 65 64 63 63 61 60 59 58 58 57 56 55
8 7 8 9 11 13 15 17 19 22 25 28 32 34 37 40 43 46 49 52 55 58 61 64 66 68 70 72 73 74 75 75 76 75 75 74 72 71 69 68 66 66 64 63 62 61 60 59 58
7 7 9 11 13 15 18 19 23 27 30 33 36 39 42 45 48 52 55 58 61 65 68 70 72 74 76 77 78 79 80 80 80 81 80 80 79 77 75 73 71 69 68 67 66 65 64 63 62
7 9 12 14 16 19 22 25 28 31 34 37 39 43 47 50 53 57 60 64 67 70 73 76 78 80 81 81 81 80 80 80 80 81 82 83 82 82 80 78 76 74 72 71 70 69 67 66 65
9 12 15 17 20 23 27 29 32 35 37 40 44 48 51 55 59 63 66 70 73 76 78 80 82 82 81 80 78 77 75 74 74 75 77 80 82 84 84 82 80 78 76 74 73 72 71 70 68
13 16 18 20 24 27 30 33 35 38 41 45 48 52 57 62 65 68 71 74 76 78 80 80 79 77 74 71 68 64 62 60 59 60 64 68 73 78 82 84 84 82 79 78 76 75 74 73 72
16 18 21 24 27 30 34 36 37 41 45 48 53 58 62 67 70 72 74 76 78 78 78 76 72 68 64 61 57 54 52 49 48 48 49 53 58 65 73 80 83 85 84 81 80 78 77 76 75
19 22 25 28 30 32 38 39 40 44 48 53 58 62 67 70 73 75 76 78 78 76 73 69 63 59 56 53 51 49 47 46 45 45 44 44 46 50 56 65 74 81 85 85 84 82 81 79 78
22 25 28 30 33 36 39 44 44 48 52 57 62 67 70 73 75 76 77 76 74 71 66 60 56 53 52 51 49 47 46 44 43 42 41 41 41 42 44 49 57 67 76 82 85 86 85 83 81
24 27 30 33 36 39 42 46 49 52 57 62 66 70 72 74 75 76 76 74 70 65 59 55 52 52 51 50 49 48 47 45 43 41 40 39 38 38 38 40 44 51 60 70 77 83 86 86 85
26 29 33 36 40 42 45 49 53 56 61 65 69 72 74 75 75 75 74 70 66 60 55 53 52 53 53 52 51 51 49 47 45 43 41 38 37 35 35 35 36 39 45 54 63 71 78 84 86
27 31 36 41 44 45 47 50 56 60 64 68 71 73 74 75 75 74 70 66 61 57 54 54 55 55 55 55 54 53 51 49 47 44 42 39 36 35 34 33 33 34 36 41 48 57 64 72 79
28 31 35 40 43 46 49 53 59 63 67 70 72 74 75 75 74 71 67 63 59 57 56 57 58 58 58 57 56 54 52 51 49 47 44 41 38 36 34 33 32 33 33 35 38 43 50 57 65
29 33 36 39 44 49 53 57 61 66 69 71 73 74 74 73 71 68 65 61 59 59 59 60 60 59 58 57 55 53 52 50 49 48 46 44 42 38 36 34 33 33 33 34 35 37 40 44 50
30 34 38 41 46 52 56 61 64 67 70 72 73 74 74 72 68 66 63 62 62 62 62 61 60 59 57 55 53 51 49 48 46 45 45 44 43 41 39 37 35 34 34 34 35 36 37 39 42
31 34 38 42 46 52 58 63 65 68 71 73 73 73 72 69 66 64 64 64 63 63 62 60 59 56 53 51 49 48 46 45 44 43 42 42 42 42 41 40 38 37 37 36 36 36 37 38 39
31 34 39 44 50 54 59 64 67 69 71 72 73 72 70 67 65 65 65 64 63 62 61 58 55 52 50 49 48 47 47 46 45 44 43 42 41 41 41 41 41 40 40 39 39 38 38 39 39
Wind_Direction
295 279 271 265 272 271 265 256 250 253 257 264 267 269 273 275 277 280 278 276 273 270 268 265 263 263 262 262 262 263 263 264 264 264 264 263 263 261 260 258 257 254 250 247 244 242 242 241 241
68 71 52 358 324 304 283 261 253 272 279 284 286 288 288 288 290 291 292 290 287 282 277 273 269 267 266 266 266 266 266 266 265 264 264 263 262 261 260 258 256 254 251 248 246 244 243 242 242
78 78 73 72 83 125 136 168 282 306 305 308 310 312 310 308 304 299 296 293 290 285 281 277 274 270 269 268 268 267 267 266 266 264 263 262 262 261 259 258 257 255 252 249 247 246 244 243 243
78 80 80 84 94 105 101 63 15 350 337 330 325 322 318 313 308 303 299 295 291 288 284 281 278 275 272 271 270 269 268 267 266 265 264 263 263 262 260 259 257 255 253 250 248 246 245 244 243
78 78 82 83 87 78 61 41 21 12 354 338 325 319 312 309 305 302 298 294 291 288 286 284 282 279 277 275 272 270 269 267 267 266 264 263 263 262 262 260 259 256 255 252 250 248 246 244 243
77 73 73 64 58 51 37 23 7 354 341 330 321 316 311 309 306 303 299 296 294 292 290 288 287 285 282 280 277 274 272 270 268 266 265 263 262 260 260 259 258 257 256 254 252 250 247 245 243
73 67 63 58 53 41 27 11 359 349 343 336 331 326 322 319 314 311 308 306 303 300 297 295 292 290 287 285 282 279 276 273 270 267 266 264 263 261 260 258 257 256 255 254 253 251 249 248 246
72 71 68 63 55 40 24 11 2 353 347 344 339 333 329 325 322 318 315 312 308 304 301 298 295 292 289 287 284 282 279 277 274 271 268 266 264 262 260 258 257 255 254 253 252 252 251 249 248
73 73 70 62 49 36 20 7 358 351 346 343 339 336 332 328 325 321 317 313 309 305 302 298 295 292 289 287 284 282 280 277 275 273 270 268 265 263 261 259 257 255 253 252 252 251 251 250 249
69 66 59 51 44 36 26 16 6 357 352 346 341 336 331 327 323 320 316 313 309 306 303 300 297 294 291 288 285 283 280 278 276 274 271 269 266 264 261 260 258 256 254 252 251 250 249 249 249
64 63 60 54 49 46 42 36 23 9 357 347 339 334 330 325 322 318 315 311 308 305 303 300 298 295 292 289 287 284 281 279 276 274 272 270 268 265 263 260 258 256 254 253 252 250 248 247 246
74 73 69 63 54 45 37 27 12 359 348 340 334 329 325 321 317 314 310 307 305 302 300 298 295 293 290 288 286 283 281 278 276 274 271 269 267 265 264 262 260 257 255 253 252 250 249 248 247
84 79 69 58 43 29 15 5 355 347 340 334 329 324 320 316 313 310 307 304 302 300 298 296 293 291 289 287 285 283 280 278 275 273 270 268 266 263 262 261 259 258 256 254 252 250 249 248 248
78 68 51 33 18 8 359 351 345 338 333 328 324 320 316 313 310 307 305 302 300 299 297 295 293 292 290 287 285 283 281 278 276 273 271 268 266 263 261 259 258 256 255 254 252 250 249 247 247
63 49 27 10 359 353 348 342 338 332 328 323 319 316 313 310 308 306 304 302 301 299 297 296 295 293 291 290 287 285 282 279 276 273 271 268 266 263 261 258 256 255 253 252 251 250 249 247 246
37 18 2 352 346 342 338 336 332 328 324 320 317 314 311 309 308 306 304 303 302 301 300 299 298 296 294 292 289 286 283 280 276 273 270 268 265 263 260 258 256 254 252 251 250 249 248 247 245
8 354 345 340 337 335 331 330 327 324 321 318 316 314 312 310 309 308 307 306 305 304 303 302 301 299 297 295 293 290 287 283 279 275 270 267 264 262 260 257 255 253 251 250 249 247 246 245 245
346 339 335 332 330 329 327 326 325 323 320 318 317 315 314 312 312 311 311 310 309 308 307 306 304 302 301 299 298 296 294 290 286 280 274 269 264 261 259 256 255 252 250 249 247 246 245 244 243
335 331 328 327 326 326 325 326 326 323 321 319 318 316 315 314 314 314 313 312 311 311 309 308 306 305 305 304 304 303 301 298 293 287 280 274 267 262 258 255 253 251 250 248 246 245 243 242 242
327 323 322 323 325 327 325 325 326 323 321 320 319 318 318 317 316 316 315 314 313 312 311 309 308 308 309 309 310 309 308 306 303 298 291 283 274 266 260 255 252 250 249 247 245 244 242 241 241
320 321 322 324 326 328 324 325 326 324 323 321 320 319 318 317 318 317 316 315 315 313 311 310 311 311 312 313 312 312 311 310 307 304 300 294 286 276 267 260 254 250 247 246 245 243 242 240 239
322 323 324 325 326 328 326 325 328 326 324 322 322 321 320 320 320 319 318 317 316 314 313 313 313 313 313 313 312 311 310 309 307 305 302 298 293 286 277 268 260 253 248 246 244 243 242 241 239
323 323 323 324 326 328 328 328 329 327 325 324 324 323 323 322 322 321 320 319 317 316 316 315 314 314 313 312 311 309 308 307 306 304 303 301 296 291 284 276 267 258 251 247 244 243 242 241 240
323 322 323 325 327 330 331 330 328 328 327 327 326 325 325 324 324 323 322 320 319 318 317 316 315 314 312 311 309 308 307 305 303 302 300 299 296 292 287 280 272 264 257 250 246 243 242 242 241
324 326 327 328 330 332 330 331 329 329 329 328 327 327 326 326 326 325 323 321 321 319 318 317 316 315 313 311 309 307 305 303 302 299 297 296 293 290 286 282 276 268 261 254 249 246 243 242 242
325 326 328 329 329 329 331 332 330 331 330 329 328 328 328 328 327 326 324 324 322 321 319 318 317 316 315 313 311 309 306 303 300 298 295 292 289 286 282 279 275 270 264 257 252 247 244 242 241
324 326 328 329 329 331 333 333 331 332 331 330 330 330 330 330 328 327 326 325 324 323 321 321 320 318 317 315 314 311 309 305 301 298 294 290 287 284 280 275 271 268 264 259 254 249 245 242 241
326 328 330 332 332 332 332 333 334 333 332 331 332 332 332 331 329 328 328 327 326 325 324 323 323 322 321 319 318 316 314 311 307 302 296 292 287 283 278 274 269 265 262 259 255 250 247 243 241
329 329 330 332 333 333 333 333 335 334 333 333 334 334 334 332 331 330 329 329 328 328 327 326 326 326 326 325 324 322 320 317 314 310 304 297 291 285 279 274 269 264 260 257 253 250 247 245 242
328 329 332 333 334 334 333 333 336 335 335 335 336 336 335 333 332 331 331 330 330 329 329 329 330 331 330 329 328 325 323 320 317 313 308 303 297 290 283 276 271 265 259 255 252 249 247 245 243
Height
5861 5861 5862 5863 5865 5865 5865 5865 5865 5865 5866 5866 5866 5866 5866 5866 5866 5868 5865 5862 5862 5861 5860 5859 5858 5857 5857 5856 5856 5856 5855 5855 5854 5854 5853 5853 5853 5852 5852 5851 5851 5851 5851 5850 5850 5851 5851 5852 5852
5860 5861 5862 5863 5864 5864 5865 5864 5864 5865 5865 5865 5864 5864 5864 5863 5863 5861 5860 5859 5858 5856 5855 5854 5853 5852 5851 5851 5850 5850 5850 5849 5849 5848 5847 5847 5847 5846 5846 5846 5845 5845 5845 5845 5845 5845 5846 5847 5847
5860 5861 5863 5863 5863 5864 5864 5864 5864 5864 5864 5863 5863 5862 5861 5860 5859 5858 5856 5855 5854 5852 5851 5850 5849 5848 5847 5846 5845 5844 5843 5843 5842 5841 5841 5840 5840 5839 5839 5839 5838 5838 5838 5838 5839 5839 5840 5840 5841
5861 5862 5864 5863 5863 5864 5864 5864 5864 5864 5863 5862 5862 5861 5859 5857 5856 5855 5854 5852 5851 5849 5848 5846 5845 5843 5842 5841 5840 5839 5837 5836 5835 5835 5834 5833 5833 5832 5832 5831 5831 5831 5831 5832 5832 5832 5833 5834 5835
5863 5863 5864 5864 5864 5864 5864 5864 5864 5863 5862 5861 5861 5860 5858 5856 5855 5853 5852 5850 5848 5846 5844 5842 5841 5839 5837 5836 5834 5833 5831 5830 5829 5828 5827 5826 5825 5825 5824 5824 5824 5824 5824 5824 5824 5825 5825 5826 5827
5864 5865 5865 5865 5865 5865 5864 5863 5863 5862 5861 5860 5860 5859 5857 5855 5854 5852 5850 5848 5845 5843 5841 5839 5836 5834 5832 5830 5828 5827 5825 5823 5822 5820 5819 5818 5817 5816 5815 5815 5815 5815 5816 5816 5816 5817 5818 5819 5820
5866 5866 5866 5866 5865 5865 5864 5863 5862 5861 5861 5860 5859 5858 5855 5853 5852 5849 5847 5844 5842 5839 5837 5834 5832 5829 5826 5824 5821 5819 5817 5815 5813 5812 5810 5809 5808 5807 5806 5805 5805 5805 5806 5806 5807 5808 5809 5810 5812
5867 5868 5866 5866 5865 5865 5864 5863 5862 5860 5859 5858 5857 5855 5853 5851 5849 5846 5843 5841 5838 5835 5832 5829 5826 5823 5819 5816 5814 5811 5808 5806 5804 5802 5801 5799 5798 5797 5796 5795 5795 5795 5796 5796 5797 5798 5799 5801 5803
5868 5869 5867 5867 5866 5865 5864 5863 5862 5859 5858 5857 5855 5853 5851 5849 5846 5843 5840 5837 5834 5830 5827 5823 5819 5816 5812 5809 5805 5802 5799 5796 5794 5792 5790 5789 5787 5786 5785 5785 5784 5785 5785 5785 5786 5787 5789 5791 5793
5869 5869 5868 5867 5866 5865 5864 5863 5862 5859 5858 5857 5854 5852 5849 5846 5843 5840 5837 5833 5829 5825 5821 5817 5813 5809 5804 5800 5796 5793 5789 5786 5783 5781 5779 5777 5776 5775 5774 5774 5774 5774 5774 5774 5775 5775 5777 5779 5782
5869 5868 5867 5867 5866 5865 5864 5863 5862 5860 5858 5856 5853 5851 5847 5844 5840 5836 5832 5828 5824 5819 5814 5809 5804 5800 5795 5790 5786 5782 5778 5775 5772 5769 5767 5765 5763 5762 5761 5761 5761 5762 5762 5763 5763 5764 5765 5767 5768
5870 5869 5868 5867 5866 5865 5864 5863 5862 5860 5858 5855 5851 5848 5844 5840 5836 5831 5827 5821 5816 5811 5806 5800 5794 5789 5783 5778 5773 5769 5765 5761 5758 5755 5753 5751 5750 5748 5747 5747 5747 5748 5749 5750 5751 5752 5753 5755 5756
5871 5870 5869 5868 5867 5866 5864 5863 5861 5858 5855 5852 5848 5845 5840 5835 5830 5825 5819 5814 5808 5801 5795 5788 5782 5776 5770 5764 5758 5753 5748 5744 5741 5739 5736 5735 5734 5733 5732 5732 5732 5733 5734 5736 5737 5739 5740 5742 5744
5872 5871 5870 5869 5867 5865 5864 5862 5859 5855 5852 5849 5844 5840 5835 5829 5823 5817 5810 5804 5797 5789 5782 5775 5767 5760 5753 5747 5740 5735 5730 5725 5722 5719 5717 5715 5714 5714 5714 5715 5715 5717 5718 5720 5722 5724 5726 5728 5731
5873 5872 5871 5869 5867 5865 5863 5860 5857 5853 5849 5844 5839 5834 5828 5822 5815 5808 5800 5793 5785 5777 5769 5761 5752 5744 5736 5729 5722 5715 5709 5704 5700 5697 5694 5693 5693 5693 5694 5695 5696 5698 5700 5703 5705 5708 5711 5714 5717
5874 5873 5871 5869 5866 5864 5863 5859 5854 5849 5844 5839 5833 5827 5820 5813 5806 5798 5790 5781 5772 5763 5753 5744 5735 5726 5717 5708 5700 5693 5686 5681 5676 5672 5670 5669 5669 5669 5671 5672 5675 5678 5681 5684 5687 5690 5694 5698 5701
5874 5872 5870 5868 5864 5861 5858 5855 5850 5845 5839 5833 5826 5819 5812 5804 5796 5787 5777 5767 5757 5746 5736 5726 5715 5705 5695 5685 5675 5667 5660 5654 5649 5645 5643 5642 5642 5643 5645 5648 5651 5655 5659 5663 5667 5671 5676 5680 5684
5874 5871 5868 5865 5862 5858 5854 5850 5845 5839 5833 5826 5819 5811 5802 5794 5784 5774 5763 5752 5740 5729 5717 5705 5693 5682 5671 5661 5651 5642 5634 5627 5621 5617 5614 5614 5614 5616 5618 5622 5626 5631 5636 5641 5646 5651 5656 5661 5666
5872 5869 5866 5863 5859 5855 5850 5845 5840 5833 5826 5819 5810 5802 5792 5782 5772 5760 5749 5737 5724 5711 5698 5685 5673 5661 5650 5641 5631 5623 5614 5606 5599 5593 5588 5586 5586 5587 5590 5595 5600 5605 5611 5617 5623 5629 5635 5641 5646
5869 5867 5863 5860 5855 5851 5845 5841 5835 5827 5819 5811 5802 5792 5781 5770 5758 5746 5734 5720 5707 5694 5680 5667 5655 5644 5633 5624 5615 5606 5598 5591 5583 5576 5570 5564 5562 5561 5563 5566 5572 5578 5585 5592 5599 5606 5613 5620 5626
5866 5863 5859 5855 5851 5846 5840 5835 5829 5820 5812 5802 5792 5782 5771 5758 5746 5733 5719 5706 5692 5678 5664 5651 5640 5630 5621 5611 5603 5595 5587 5578 5571 5564 5556 5549 5544 5541 5540 5541 5545 5551 5558 5566 5574 5581 5589 5598 5605
5863 5859 5855 5851 5846 5841 5835 5827 5822 5812 5803 5793 5782 5770 5758 5745 5732 5718 5704 5690 5676 5662 5649 5637 5627 5618 5609 5600 5592 5584 5576 5568 5560 5553 5546 5539 5532 5527 5524 5522 5523 5526 5532 5539 5548 5556 5565 5574 5583
5859 5855 5850 5845 5840 5835 5828 5820 5814 5804 5794 5783 5771 5758 5745 5732 5718 5704 5689 5674 5660 5647 5635 5625 5616 5607 5598 5589 5581 5573 5565 5557 5549 5542 5535 5529 5522 5516 5512 5509 5507 5508 5510 5516 5523 5531 5541 5550 5559
5855 5851 5845 5840 5834 5829 5821 5813 5805 5795 5784 5772 5759 5746 5732 5719 5704 5689 5674 5659 5646 5634 5624 5614 5605 5596 5586 5577 5568 5560 5552 5545 5537 5531 5525 5518 5512 5507 5502 5498 5496 5495 5495 5498 5502 5509 5517 5526 5535
5851 5846 5840 5833 5827 5822 5814 5806 5797 5785 5773 5760 5747 5734 5720 5706 5690 5675 5660 5646 5634 5623 5613 5603 5593 5584 5574 5564 5555 5546 5538 5531 5524 5518 5513 5507 5502 5497 5493 5489 5486 5484 5484 5485 5487 5491 5497 5504 5512
5847 5843 5837 5830 5822 5816 5807 5798 5788 5776 5763 5750 5737 5723 5708 5692 5676 5661 5647 5634 5623 5612 5602 5592 5581 5570 5560 5550 5540 5531 5523 5516 5510 5504 5499 5494 5490 5487 5483 5480 5477 5475 5474 5474 5475 5478 5481 5486 5493
5843 5837 5832 5825 5816 5807 5799 5791 5778 5766 5754 5740 5726 5710 5695 5680 5664 5649 5636 5624 5612 5601 5590 5579 5568 5557 5546 5536 5526 5517 5508 5501 5495 5489 5484 5479 5476 5473 5471 5469 5467 5465 5464 5464 5465 5466 5469 5473 5477
5839 5832 5826 5819 5810 5801 5792 5781 5771 5757 5744 5729 5714 5699 5683 5668 5652 5638 5625 5613 5601 5589 5578 5566 5554 5543 5532 5522 5512 5503 5495 5487 5480 5474 5469 5464 5461 5458 5457 5456 5454 5454 5453 5453 5454 5455 5457 5460 5464
5834 5828 5821 5813 5805 5794 5784 5776 5764 5749 5734 5719 5704 5688 5672 5657 5642 5628 5615 5602 5590 5578 5566 5554 5543 5532 5521 5511 5502 5493 5484 5476 5468 5461 5455 5450 5446 5443 5442 5441 5440 5440 5440 5441 5442 5444 5446 5448 5452
5830 5823 5816 5809 5798 5788 5777 5769 5753 5739 5724 5709 5694 5678 5662 5647 5633 5619 5606 5593 5580 5568 5556 5544 5533 5522 5512 5502 5492 5483 5474 5465 5457 5450 5443 5437 5433 5429 5426 5425 5425 5425 5426 5427 5429 5431 5434 5436 5440